Simultaneous Nadir Overpasses (SNOs) Predictions

Prediction of SNOs between LANDSAT-8 and METOP-B Satellite Orbit:

Table of predicted SNOs for the next 14.0 days since TLE Epoch: 2/25/2023
Index Date (LANDSAT-8) Time (LANDSAT-8) Lat,Lon (LANDSAT-8) SZA (LANDSAT-8 ) Date (METOP-B) Time (METOP-B) Lat,Lon (METOP-B) SZA (METOP-B ) Distance(km) Time Diff (sec)
1 02/26/2023 08:20:56 -81.12, -85.71 88.46 02/26/2023 08:20:31 -81.12, -85.80 88.48 1.66 25
2 02/26/2023 09:10:21 81.15, 82.42 91.60 02/26/2023 09:11:09 81.15, 82.46 91.62 0.83 48
3 03/01/2023 03:55:11 -81.13, -19.06 89.48 03/01/2023 03:54:53 -81.13, -19.20 89.50 2.62 18
4 03/01/2023 04:44:37 81.14, 148.67 90.53 03/01/2023 04:45:32 81.14, 148.67 90.55 0.40 55
5 03/03/2023 23:29:25 -81.13, 47.38 90.54 03/03/2023 23:29:14 -81.13, 47.32 90.55 1.13 11
6 03/04/2023 00:18:51 81.14,-144.91 89.47 03/04/2023 00:19:53 81.15,-144.83 89.51 1.66 62
7 03/06/2023 19:03:40 -81.12, 113.62 91.63 03/06/2023 19:03:36 -81.13, 113.78 91.61 2.90 4
8 03/06/2023 19:53:05 81.15, -78.33 88.42 03/06/2023 19:54:15 81.15, -78.39 88.44 1.04 70
9 03/09/2023 13:48:27 81.12, 12.38 87.30 03/09/2023 13:47:18 81.11, 12.33 87.27 1.04 69



Historial Predications of SNOs between LANDSAT-8 and METOP-B
